Wind_Speed
6 7 9 11 13 16 20 22 22 22 21 19 19 18 19 19 18 18 17 16 14 14 15 14 14 14 14 14 14 14 14 14 14 14 14 14 13 13 12 11 10 9 8 7 6 6 7 7 6 5 4 4 4 5 5 6 7 7 5 6 6 8 9 9 8 9 9 10 10 11 11 11 11 11 11 12 13 13 14 15 15 15 16 16 17
8 9 12 14 14 16 19 21 22 21 20 20 19 19 19 19 18 17 17 16 14 14 14 14 14 14 15 14 14 14 14 15 15 15 15 14 14 13 12 10 10 8 7 7 6 7 7 6 6 6 5 3 3 4 5 5 6 6 5 6 7 8 8 9 9 10 10 11 11 11 11 12 12 12 12 12 13 14 15 15 16 16 16 16 16
10 11 15 16 16 18 19 21 21 21 20 19 19 18 18 18 17 17 17 15 14 14 14 14 14 14 15 14 14 14 14 14 15 15 14 14 13 12 11 10 9 8 7 7 7 6 6 6 6 5 4 3 3 4 4 5 6 6 5 6 7 8 8 9 10 11 11 12 11 12 12 12 12 12 12 13 13 14 15 16 16 16 16 15 15
12 14 18 19 19 20 21 21 21 20 20 19 19 18 18 18 17 17 16 15 14 14 14 14 14 14 15 15 14 14 14 14 14 14 13 13 12 12 11 10 9 8 7 7 7 6 6 5 5 4 3 3 3 3 4 5 6 6 5 6 7 8 8 9 10 11 12 12 12 12 12 12 12 12 12 13 13 14 15 15 15 15 14 14 13
14 17 21 21 21 22 22 22 21 21 20 19 19 19 19 18 18 17 16 16 14 13 13 14 14 15 15 15 15 14 13 13 13 12 12 12 12 12 11 10 9 8 7 7 7 6 6 6 5 4 3 3 3 3 4 5 6 6 6 6 7 7 8 9 10 12 12 12 12 12 12 12 12 12 12 12 12 13 13 13 13 13 13 12 12
16 20 23 24 24 24 23 23 22 21 20 20 20 20 19 19 19 18 17 16 14 13 13 14 14 15 15 15 15 14 13 12 11 11 10 11 11 11 10 9 9 8 7 7 7 7 7 6 6 5 4 4 4 4 4 5 6 6 6 6 6 7 8 9 10 11 12 13 12 12 12 12 12 12 12 12 12 12 12 12 11 11 11 11 12
19 23 24 25 25 25 24 23 21 21 20 20 21 21 20 20 19 18 18 17 15 14 14 14 14 15 15 15 15 14 13 11 10 9 9 10 11 11 10 9 8 8 7 7 7 7 7 7 6 5 4 4 4 4 4 5 6 6 6 6 6 6 7 8 10 10 11 12 12 12 12 12 12 11 11 11 11 11 11 11 11 11 11 11 11
22 25 25 26 26 26 25 23 21 21 21 21 21 21 21 21 20 19 18 17 17 15 15 14 14 15 15 15 14 13 12 11 10 9 9 10 10 10 9 9 8 8 7 8 8 8 7 7 6 6 5 5 5 4 4 5 6 6 5 5 5 5 6 7 8 9 10 11 12 12 12 11 11 10 10 10 10 10 10 10 10 10 10 10 10
24 25 25 26 26 26 24 23 22 21 21 21 21 21 21 21 20 19 18 18 17 16 15 15 14 14 14 14 14 12 11 10 9 9 9 9 9 9 9 9 8 8 8 8 8 8 8 7 6 6 5 5 4 4 4 5 5 5 5 4 4 4 5 6 7 8 9 9 10 10 10 10 9 9 10 10 9 9 10 10 10 9 9 9 9
24 25 25 26 26 25 23 23 23 22 21 21 21 21 21 21 20 19 18 18 17 16 16 15 14 14 13 13 13 12 11 10 9 8 8 7 8 8 9 8 8 8 8 9 8 8 8 7 6 6 5 4 4 4 4 4 4 4 4 3 3 3 4 4 5 6 7 7 7 7 8 8 8 8 9 9 8 9 9 9 9 8 8 8 8
24 25 25 26 25 24 23 23 22 22 21 21 21 21 21 20 20 19 18 17 17 16 16 15 14 13 13 13 12 11 10 9 8 7 6 6 7 8 8 8 8 8 8 9 8 8 7 7 6 5 4 3 3 3 3 3 3 3 3 3 3 3 3 3 4 4 4 4 4 5 5 6 6 7 7 7 7 7 7 7 7 7 7 8 8
24 25 25 24 23 22 22 21 21 21 21 21 21 21 20 20 20 19 18 17 17 16 16 15 13 13 12 12 11 11 9 8 7 6 5 5 6 7 7 7 8 8 8 8 8 6 6 6 6 5 4 3 2 2 3 2 3 3 3 3 3 3 2 2 3 2 2 2 2 2 3 3 4 5 6 6 5 5 6 6 6 6 7 7 7
25 25 25 23 21 21 20 20 20 21 20 20 20 20 20 20 20 19 18 17 16 16 15 14 13 12 12 11 11 10 8 7 6 5 5 5 6 7 7 7 8 8 7 7 6 5 5 5 5 5 4 4 2 2 2 2 2 2 2 3 2 2 2 2 2 1 1 1 1 0 1 2 2 3 5 5 5 5 5 5 5 6 6 7 7
25 24 23 21 20 19 19 19 19 19 19 19 19 19 19 19 20 19 18 17 16 15 15 14 13 12 12 11 10 8 7 6 5 5 5 5 5 6 7 7 7 7 7 6 6 6 6 5 5 4 4 5 3 2 2 2 2 2 2 2 2 2 2 2 2 1 1 1 1 1 1 1 2 3 4 6 6 6 5 5 5 5 6 7 7
23 22 21 19 18 18 18 19 18 18 18 18 18 18 18 19 19 19 19 18 16 15 14 14 13 12 11 10 9 8 6 5 4 4 4 4 4 5 7 7 7 7 7 6 6 6 5 5 4 3 4 4 4 3 3 2 1 1 1 1 1 1 1 2 2 1 1 1 1 1 2 2 2 3 4 6 8 8 7 6 6 6 6 7 7
21 19 19 18 17 17 17 18 18 17 17 17 17 17 17 17 17 18 18 17 16 15 14 13 12 11 9 8 7 6 5 4 3 3 2 3 4 5 5 6 6 6 6 6 5 5 4 4 3 3 3 4 3 3 2 2 1 1 1 2 2 2 1 1 1 1 1 1 2 2 2 3 3 3 5 7 9 9 8 7 7 7 7 7 7
18 17 17 16 16 16 16 17 17 16 16 16 16 16 16 16 16 16 16 16 15 14 13 12 11 9 8 6 5 5 4 3 2 1 1 2 3 3 4 4 4 5 5 5 4 3 3 3 3 3 3 3 2 2 2 2 1 1 1 1 2 2 2 1 1 0 1 1 2 2 2 3 4 4 5 7 9 10 9 8 8 8 8 8 8
16 16 15 15 15 15 16 16 15 15 15 15 16 16 16 16 15 15 15 14 13 13 12 11 10 9 7 6 5 4 3 2 2 1 1 1 1 2 2 3 3 4 4 4 3 3 2 3 3 3 3 3 2 2 1 1 0 0 0 1 1 2 2 2 2 1 2 2 2 2 3 4 5 5 6 8 9 10 10 9 8 8 7 7 7
15 15 15 14 14 14 14 15 15 14 14 15 15 15 15 15 14 14 13 12 12 12 11 10 9 8 7 6 5 4 4 3 3 2 2 1 2 1 1 1 2 3 4 4 4 4 3 3 4 3 3 3 2 2 0 0 0 0 0 1 1 2 3 3 3 3 3 3 3 3 4 5 6 6 7 8 9 10 9 8 7 7 7 7 7
14 14 14 13 12 12 12 13 14 14 13 14 14 13 13 13 12 12 12 11 11 11 10 9 9 8 7 6 5 5 4 4 3 2 2 1 2 2 1 1 1 2 3 3 3 3 4 4 4 3 2 2 2 1 0 1 0 0 1 1 2 3 3 4 4 4 4 5 5 5 5 6 6 7 6 7 8 9 8 7 6 6 6 7 7
13 13 13 13 12 12 11 12 12 12 13 13 13 12 12 12 12 11 11 11 10 9 9 9 8 7 6 6 6 5 5 4 3 2 1 1 1 1 1 1 1 2 3 2 2 3 4 4 3 3 3 2 1 0 1 1 0 0 1 2 2 3 4 5 5 6 5 5 5 5 5 6 7 7 6 6 7 7 7 7 6 7 7 8 8
13 12 12 12 12 12 12 11 12 12 12 12 12 12 11 12 11 11 10 10 9 9 8 8 7 6 6 6 6 6 6 5 3 2 2 1 2 2 2 1 1 2 2 3 3 3 4 3 3 3 3 2 1 1 1 1 1 0 2 3 3 4 5 6 6 6 6 6 6 5 5 6 6 7 6 6 6 7 8 8 8 8 8 9 9
13 13 12 12 12 12 12 12 12 12 12 12 12 11 11 11 11 10 10 9 9 8 8 8 7 7 7 6 6 6 6 5 4 3 3 3 4 3 3 2 2 2 2 2 3 3 2 2 3 3 2 2 1 1 2 2 1 2 3 4 4 5 5 6 6 6 6 6 6 6 6 6 6 7 7 6 6 7 8 9 9 9 9 10 10
13 13 13 12 12 12 12 12 13 13 12 12 11 11 10 10 10 9 9 9 8 8 8 8 7 8 8 7 7 6 6 5 4 4 4 4 5 4 4 3 3 3 2 2 2 1 1 1 1 1 1 1 1 1 1 2 3 3 4 5 5 5 5 6 6 6 6 5 5 5 6 6 6 7 7 7 7 8 8 9 9 9 10 10 11
13 13 13 13 13 13 13 12 12 13 13 12 12 11 10 9 9 9 8 8 8 8 8 8 7 8 7 7 7 6 6 5 5 5 6 6 6 5 5 4 4 3 3 3 2 2 1 1 1 1 0 0 1 1 2 2 3 3 4 4 5 5 5 5 6 6 5 5 5 5 5 6 6 7 7 7 8 8 9 9 9 10 10 11 12
12 12 12 12 13 13 13 13 12 12 12 12 11 11 10 9 8 8 7 7 7 7 7 7 7 7 7 7 7 7 7 7 7 7 7 7 6 6 5 4 4 4 4 4 3 2 2 3 3 2 2 1 1 1 2 3 3 3 4 3 3 3 4 4 4 5 5 5 5 5 5 6 6 6 7 8 8 9 9 10 10 11 11 12 13
10 11 11 12 12 13 13 13 13 12 12 11 11 10 10 9 8 8 7 7 7 7 7 7 7 7 7 8 8 8 8 8 8 7 7 6 6 5 4 4 4 4 4 5 3 2 3 4 3 3 3 2 2 2 2 3 3 3 3 3 3 3 3 3 3 4 4 4 4 4 5 5 6 6 8 8 9 10 10 11 12 12 13 14 14
10 11 11 12 12 13 13 13 12 12 12 11 11 11 10 10 9 9 8 8 7 7 7 7 8 8 9 9 10 10 10 9 8 8 7 7 6 5 5 5 5 4 4 4 4 3 4 4 3 4 3 3 2 2 2 2 3 3 3 2 3 3 3 3 3 3 4 4 4 5 5 5 7 8 9 10 11 12 12 12 13 14 15 15 16
11 12 12 12 12 13 13 12 12 11 11 11 11 10 10 10 9 9 8 8 8 8 8 9 9 10 10 11 11 11 10 10 9 8 8 7 7 7 7 7 6 5 5 5 5 5 5 5 4 4 4 4 3 3 3 2 3 3 3 3 3 3 3 3 4 4 4 5 5 6 6 7 9 10 11 12 13 13 14 14 15 16 16 17 17
13 13 12 13 13 13 13 12 12 11 11 10 10 10 10 10 9 9 9 9 9 9 9 10 11 11 11 11 11 11 10 9 9 8 8 8 8 8 8 8 7 6 6 6 6 5 6 6 5 5 5 4 4 4 3 3 3 4 4 4 4 4 4 4 5 6 6 7 7 8 9 10 11 11 12 13 14 15 15 16 16 17 17 18 18
13 13 13 13 13 12 12 12 11 11 11 10 10 10 10 10 10 10 9 10 10 10 10 11 12 12 12 12 11 11 10 9 9 9 8 8 8 8 8 8 8 7 7 6 6 6 7 7 6 6 5 5 5 4 4 4 4 5 6 6 6 6 6 7 7 8 9 9 10 11 12 12 12 13 13 14 15 16 17 17 18 18 18 19 20
13 13 13 12 12 11 11 10 10 10 10 10 10 10 10 10 10 10 10 11 11 11 12 12 12 12 12 12 11 10 10 10 10 9 9 8 8 8 8 8 8 8 8 7 6 6 7 7 7 7 6 6 6 5 5 5 5 6 7 7 8 9 9 9 10 11 12 13 13 14 15 14 14 15 15 16 16 17 18 18 19 19 20 20 21
13 13 12 12 11 10 10 10 10 10 10 10 10 10 10 10 10 10 11 11 12 12 13 13 13 13 12 12 11 11 11 11 10 10 10 9 9 9 10 9 9 9 9 8 7 7 7 8 7 7 7 7 7 7 7 7 7 8 8 9 10 11 12 13 13 14 14 15 16 17 17 17 17 17 17 17 18 18 19 19 20 21 21 22 23
12 12 11 11 11 11 11 11 11 10 10 10 10 10 10 10 10 11 11 12 12 12 13 13 13 13 12 12 12 12 11 11 11 11 11 10 11 11 11 10 10 10 10 9 8 8 8 8 8 8 8 8 8 9 9 9 10 10 11 11 12 13 15 15 16 16 16 17 18 18 19 19 19 20 20 19 20 20 20 21 22 23 23 24 25
12 11 11 11 11 11 10 10 10 10 10 11 11 11 10 10 11 11 12 12 12 13 13 13 13 13 12 12 12 12 11 11 11 11 11 12 12 12 11 11 11 11 10 10 9 9 9 9 9 10 10 10 10 11 12 12 13 13 14 15 16 17 17 17 18 18 18 19 19 19 20 21 21 22 21 21 21 21 21 22 24 25 26 27 28
11 11 10 10 10 10 10 10 9 9 10 10 10 10 11 11 11 12 12 12 12 13 13 13 13 13 12 11 11 11 11 10 11 12 13 13 13 13 12 12 11 11 11 11 10 10 10 10 10 11 11 11 12 13 14 14 15 16 16 17 18 19 20 19 20 21 21 21 21 21 21 22 23 23 24 23 24 24 24 25 26 27 29 29 30
12 11 11 10 10 10 10 9 9 9 9 9 9 10 10 10 11 11 11 11 11 11 11 12 12 12 12 11 11 11 11 10 11 12 13 14 14 13 12 12 11 11 11 11 12 12 12 12 12 12 13 14 15 15 16 16 17 18 18 19 20 21 22 22 22 23 23 23 23 23 24 25 25 26 27 27 27 27 27 28 29 30 31 31 32
13 12 12 11 11 11 10 10 10 9 9 9 9 9 9 10 10 10 9 9 9 9 9 9 10 10 11 11 10 11 11 11 12 13 13 14 14 13 12 12 12 13 13 13 13 14 15 15 16 16 16 16 17 17 17 19 20 20 20 21 21 22 23 23 23 24 25 25 26 26 27 27 28 28 29 30 30 30 31 31 30 31 31 32 33
14 13 13 13 13 13 12 12 12 11 11 11 11 11 11 10 10 10 9 9 9 8 8 9 9 10 11 11 11 11 12 12 13 14 14 15 15 14 13 13 14 14 14 15 15 16 17 18 18 18 19 19 19 19 19 20 22 23 23 23 23 23 24 24 24 25 27 28 28 29 29 29 30 30 31 32 33 32 32 31 31 30 31 34 37
15 15 15 15 14 14 14 14 14 14 14 14 14 14 13 13 12 12 11 11 11 11 11 11 11 11 12 12 13 13 13 14 15 15 16 16 16 15 15 15 15 15 16 16 17 18 19 19 20 20 21 22 22 21 21 22 24 25 25 25 25 26 26 26 26 27 28 29 29 30 31 31 31 30 31 32 33 33 33 33 33 33 35 38 41
17 16 16 16 16 15 15 15 15 15 16 16 16 16 16 15 15 15 15 14 14 14 14 13 14 14 14 15 15 16 16 16 17 18 18 18 17 17 17 17 17 17 18 19 19 20 21 22 22 23 24 25 24 23 24 25 26 26 26 27 27 28 28 27 28 29 30 31 32 32 32 32 31 31 32 35 37 38 39 39 37 37 39 43 45
19 18 17 17 17 17 17 17 17 17 17 18 18 18 17 17 17 17 17 17 17 16 16 17 17 18 17 17 18 18 18 18 19 20 20 20 19 19 19 19 19 19 20 21 21 22 23 24 25 26 27 27 27 26 26 28 28 28 28 28 29 29 30 29 29 31 33 34 34 33 32 33 34 36 37 38 40 41 40 39 39 41 44 47 47
21 20 20 19 19 19 18 18 18 18 19 19 19 19 19 18 18 18 18 19 19 19 19 20 20 20 20 20 20 21 21 21 22 22 22 21 21 20 20 20 20 21 22 23 24 25 25 26 27 28 28 29 28 28 28 28 29 30 30 31 31 31 31 31 32 34 35 36 36 35 34 35 36 38 39 38 38 38 39 40 43 46 48 47 46
24 23 22 22 21 21 21 21 21 21 21 21 21 21 20 20 19 19 20 20 21 21 22 23 23 23 22 22 22 23 23 24 24 24 24 24 22 22 22 21 21 22 24 25 26 27 27 28 28 29 30 30 30 30 29 29 29 30 31 32 33 32 32 33 34 36 38 39 39 39 38 37 38 39 40 40 40 41 43 46 48 48 47 47 46
26 25 25 24 24 24 23 23 23 24 24 23 23 23 22 22 22 22 22 23 23 24 25 25 25 25 24 24 25 26 26 26 25 25 25 25 24 23 23 22 22 23 25 27 28 28 29 29 30 30 31 32 32 31 31 32 31 30 31 33 34 34 34 33 34 37 38 38 39 39 38 38 40 42 42 44 45 47 48 48 48 48 48 46 45
27 27 27 27 27 26 26 26 26 26 26 26 26 26 26 25 25 24 24 25 26 26 27 28 28 27 27 27 28 28 28 27 26 26 26 26 25 25 24 24 24 25 27 28 29 30 30 31 31 32 32 32 33 33 33 34 34 34 34 35 35 36 36 34 34 37 36 34 36 38 40 42 46 47 46 46 47 46 46 46 47 48 47 45 43
29 29 30 30 29 29 29 28 28 29 28 28 29 29 29 28 28 27 27 27 28 28 29 30 30 30 29 30 31 31 29 28 27 28 28 28 28 27 26 27 29 30 30 31 31 31 32 33 32 33 33 33 34 35 35 36 37 37 37 38 37 37 38 37 38 40 40 40 42 46 50 51 51 49 48 47 45 45 45 46 47 48 47 47 47
31 31 31 31 31 31 31 31 31 31 30 30 31 32 31 31 31 30 30 30 30 31 31 32 32 32 32 33 34 33 32 30 28 28 29 29 28 28 27 29 31 33 33 34 34 34 35 35 35 35 35 36 36 37 38 38 39 39 40 41 41 41 41 42 42 43 45 46 48 50 51 50 48 46 46 46 46 47 48 50 50 49 49 50 50
33 33 33 33 33 33 33 33 33 33 33 33 33 34 33 33 33 33 33 33 33 33 33 33 33 33 34 34 35 34 34 32 30 29 30 30 29 29 29 30 32 33 34 35 36 36 37 37 37 37 38 38 39 40 40 41 41 41 42 43 44 45 45 45 45 45 46 47 48 48 47 46 46 47 48 48 49 50 50 50 49 48 47 47 46
35 35 35 35 35 35 35 35 35 35 34 34 35 35 35 35 35 35 36 36 36 36 35 34 34 35 35 35 35 35 34 33 32 31 32 32 31 31 31 32 33 35 36 37 37 37 38 38 38 39 40 41 42 43 43 43 43 44 45 46 48 48 48 48 48 47 47 47 47 48 48 50 51 51 51 51 51 50 47 46 45 45 45 44 44
36 36 36 36 36 36 36 36 36 36 36 36 36 37 37 37 37 38 38 39 38 38 37 36 35 36 37 37 36 35 34 33 33 33 33 33 34 33 32 34 36 38 39 40 39 39 39 39 40 41 42 43 44 45 45 45 46 47 48 49 50 51 51 51 51 50 49 49 48 49 51 52 51 50 49 48 46 46 45 44 44 44 44 45 45
Wind_Direction
159 162 159 152 154 152 146 144 141 137 136 136 137 139 140 140 140 140 138 134 128 121 115 115 117 117 117 117 116 116 116 117 117 116 114 111 108 104 101 99 96 92 87 79 69 58 49 41 29 22 20 14 14 16 13 13 12 18 41 63 68 69 70 73 74 76 78 78 77 78 79 79 80 80 80 80 81 81 82 83 84 83 82 81 82
163 166 159 155 159 155 147 144 140 136 136 135 136 139 141 141 141 141 137 130 124 117 115 117 119 120 120 118 117 117 117 119 119 118 116 112 109 105 102 99 96 93 89 81 72 64 54 42 32 27 26 26 26 26 21 14 11 22 53 73 75 73 73 76 79 80 79 79 78 77 77 77 78 78 78 80 81 83 83 83 83 82 81 81 80
167 167 158 156 161 156 148 144 140 137 135 135 135 138 140 141 141 139 134 127 122 118 119 121 122 123 121 119 119 119 120 121 121 120 116 113 109 104 99 94 92 87 83 79 74 68 59 46 40 34 31 37 45 43 29 15 17 33 61 74 77 78 77 79 81 82 81 79 78 77 76 75 75 76 75 77 79 81 82 82 82 81 81 80 79
166 164 159 159 162 156 149 145 141 139 137 137 137 140 143 142 142 140 134 128 124 122 124 125 125 124 123 122 121 122 123 124 123 120 116 112 106 100 94 89 85 80 76 74 74 70 61 51 48 43 43 53 60 56 38 24 31 47 68 76 78 80 79 79 78 79 79 78 77 75 75 74 73 73 72 72 74 76 78 79 80 80 80 79 76
163 163 159 159 160 155 150 147 143 142 141 140 142 145 146 145 145 143 137 130 127 128 129 129 127 126 124 123 123 125 126 125 122 119 115 110 104 97 91 86 80 76 71 69 70 68 62 56 53 52 58 71 72 60 45 38 44 58 74 80 82 80 78 76 75 75 75 75 73 72 72 72 71 69 67 66 66 67 69 71 73 74 74 73 71
161 161 158 158 158 155 152 149 146 145 144 145 147 149 150 149 149 146 139 133 130 131 133 131 128 126 126 126 127 128 128 123 119 116 113 107 102 97 90 83 76 71 68 66 65 65 62 58 58 58 64 78 78 63 49 48 54 65 77 83 83 81 76 72 71 70 70 70 67 65 65 66 66 65 63 61 59 59 61 62 64 66 67 67 67
161 159 158 158 157 155 152 150 149 148 148 151 152 153 153 153 153 148 143 139 136 137 135 131 128 128 129 129 130 131 127 122 117 112 108 104 100 94 87 79 73 68 64 61 61 61 60 56 54 57 63 73 76 64 53 54 60 69 79 84 85 81 76 71 69 66 65 65 62 58 56 57 59 61 61 60 58 57 58 59 60 62 63 66 67
161 159 158 158 158 155 151 150 151 152 153 155 155 156 157 156 155 151 149 145 142 141 137 132 130 132 133 133 132 130 126 121 114 107 103 100 96 90 83 76 69 65 61 55 54 56 57 54 48 50 60 68 72 67 56 55 61 71 81 87 88 86 81 74 70 64 60 60 60 57 53 53 55 59 62 61 60 59 59 60 61 62 63 65 67
160 159 158 159 158 154 151 152 154 155 156 158 159 160 159 157 156 155 153 150 147 145 141 136 135 137 138 137 134 131 127 120 112 105 100 96 92 84 79 74 68 64 58 50 48 49 51 51 44 42 52 62 66 67 59 55 59 68 80 89 94 94 89 82 73 67 60 54 55 55 53 49 48 52 57 58 58 58 58 58 59 59 59 59 59
160 160 159 158 156 154 153 154 155 157 159 161 163 162 160 158 158 158 156 153 152 149 144 141 141 142 142 139 136 133 127 119 111 105 99 93 86 80 77 71 65 61 55 46 43 44 46 45 41 39 48 57 62 67 65 62 62 68 79 90 97 100 96 89 79 72 65 54 49 50 48 42 35 37 44 46 47 50 52 52 53 52 49 47 45
161 160 159 157 155 154 155 156 156 158 162 165 165 162 161 161 160 159 158 157 156 152 148 146 145 146 144 140 138 134 127 119 112 104 98 91 81 76 75 70 62 57 51 46 41 44 48 47 44 45 50 59 65 74 81 80 75 75 84 96 103 103 100 93 86 80 75 63 49 42 41 35 22 17 23 29 30 35 41 44 46 44 39 35 32
159 158 157 157 156 155 156 157 158 161 165 166 164 162 162 162 160 160 161 162 161 156 152 149 149 149 145 143 143 137 129 122 114 104 96 87 78 71 68 65 58 52 50 50 45 46 54 52 53 58 63 76 88 94 100 101 93 87 90 101 109 104 100 94 84 80 79 75 58 34 27 24 9 356 356 360 5 11 20 30 34 33 29 26 21
157 156 157 157 157 157 157 159 161 165 167 165 164 165 165 163 161 161 163 166 165 160 155 154 154 153 149 148 146 137 130 126 119 106 89 75 70 66 61 58 54 53 56 55 50 55 63 57 53 59 74 83 87 97 99 101 98 93 93 100 109 104 99 95 84 77 78 87 90 18 347 350 342 330 325 324 332 341 352 5 14 16 16 14 10
156 156 157 158 158 159 159 161 165 168 167 165 166 168 167 165 164 163 165 167 166 162 160 160 160 159 156 153 147 139 135 130 118 99 79 64 60 56 53 53 54 58 62 59 52 56 66 68 54 51 69 74 73 87 85 82 86 83 85 90 94 98 97 98 96 90 103 127 169 210 243 270 280 293 300 303 307 314 326 341 351 356 0 0 358
156 157 158 160 162 163 163 164 166 167 168 168 168 170 171 170 169 168 168 167 167 166 166 167 165 166 164 158 149 142 139 132 117 101 78 58 49 42 41 46 54 63 64 61 57 50 54 70 65 54 68 73 77 85 74 67 63 41 44 49 56 71 82 94 101 109 144 169 191 206 217 234 253 271 287 293 297 302 312 325 335 341 346 348 346
158 160 162 163 165 165 165 165 166 168 169 170 171 173 175 175 174 173 171 169 169 169 170 170 168 170 167 158 150 144 143 144 128 105 72 43 31 23 27 38 56 68 64 62 64 52 48 68 76 75 78 75 77 77 66 59 32 8 7 10 19 24 30 54 79 103 155 173 181 202 213 225 243 260 278 288 293 299 308 320 329 333 335 336 335
161 163 164 166 166 166 166 166 166 168 170 172 174 177 177 176 175 175 175 173 171 170 171 171 171 172 170 162 156 154 156 166 157 127 29 10 16 23 40 56 69 74 69 67 71 67 67 84 95 96 92 86 86 76 62 57 39 15 355 351 357 351 349 350 358 355 236 202 185 203 221 235 248 259 275 285 293 300 309 320 329 330 327 326 326
164 164 165 166 165 166 167 167 166 169 173 175 178 179 178 177 175 175 177 176 174 172 171 172 173 174 174 170 169 174 180 198 212 201 230 328 16 36 55 76 85 86 93 98 100 106 110 112 117 119 115 109 101 83 58 50 66 110 294 318 330 319 311 307 304 294 280 263 239 237 247 257 264 270 280 291 300 306 313 321 327 324 320 319 321
164 164 164 163 163 166 170 170 169 171 175 179 180 180 178 177 176 175 176 176 175 173 171 171 175 178 179 177 181 191 204 224 241 228 198 168 129 100 54 79 96 108 122 128 131 137 143 141 135 131 129 124 113 102 82 311 258 219 255 257 273 280 282 288 290 288 288 285 280 277 277 279 281 284 293 305 314 317 319 323 322 316 314 318 321
164 164 162 160 162 167 173 174 173 174 177 180 181 180 178 177 176 175 174 176 177 175 172 171 174 178 182 189 193 199 210 222 237 237 207 164 137 125 106 117 119 121 126 129 129 135 149 151 133 120 124 131 118 122 191 265 288 288 285 270 272 280 281 285 288 289 291 292 291 291 292 293 292 293 303 317 326 326 321 316 312 310 315 321 323
165 166 163 161 162 166 173 176 176 177 178 179 180 179 177 177 178 177 176 177 177 176 180 183 183 181 185 196 200 204 214 216 224 230 233 218 164 144 153 151 140 134 127 124 119 122 139 143 126 111 110 109 87 7 270 279 283 281 302 304 297 290 287 288 289 291 293 296 297 297 301 303 300 301 309 324 330 324 313 308 311 316 320 322 323
166 168 168 166 164 166 171 176 178 178 178 178 178 178 177 177 179 180 180 181 178 177 187 197 198 196 195 199 204 210 214 209 207 208 190 178 179 183 198 191 166 156 147 140 131 124 127 126 113 101 91 79 40 333 301 295 299 324 323 322 311 299 294 296 296 297 299 303 307 310 313 312 309 308 314 323 323 315 307 308 315 321 323 324 325
168 169 170 168 168 169 172 176 178 177 176 176 177 177 177 178 178 179 182 184 181 181 190 198 204 206 204 205 209 211 210 204 200 197 188 186 194 197 201 204 193 175 164 147 132 126 125 117 104 86 66 59 42 346 311 307 327 343 336 327 314 307 305 305 303 304 307 312 317 320 321 318 315 315 316 319 318 313 311 313 318 323 326 327 327
173 172 171 170 170 173 176 178 177 174 174 175 177 177 178 181 180 180 183 184 185 186 190 195 200 205 205 206 208 206 203 200 197 199 202 205 207 206 206 205 202 196 184 172 164 162 154 115 80 50 40 53 48 6 321 315 326 333 331 322 313 311 314 314 311 311 314 319 323 326 324 319 317 316 317 319 320 318 316 316 321 325 328 330 330
177 177 175 174 173 174 176 178 176 173 173 174 176 175 177 182 183 184 185 186 188 191 194 199 202 205 204 203 204 202 203 204 202 204 207 209 212 215 216 212 211 212 206 199 199 199 210 254 289 292 319 356 357 323 304 302 310 316 313 309 307 308 314 318 319 319 321 323 325 324 318 313 313 315 317 321 321 319 318 319 323 327 330 331 331
181 180 180 180 178 176 174 174 175 174 174 174 174 174 175 179 183 187 187 188 191 193 198 203 203 206 206 203 204 206 208 208 206 207 210 212 216 219 220 220 218 220 217 210 203 212 252 269 270 265 268 278 273 267 277 284 297 304 298 293 293 297 306 314 319 320 320 319 318 315 310 309 314 318 320 322 321 319 319 320 323 326 328 330 329
184 185 185 184 182 179 176 175 174 175 174 173 173 173 176 179 184 187 189 192 195 195 198 202 203 207 208 207 208 209 211 211 209 213 216 218 220 221 222 222 222 227 229 221 216 255 268 259 262 271 271 265 251 238 256 279 296 300 292 283 279 281 289 297 305 311 312 312 308 304 304 307 312 316 318 319 319 319 319 319 320 322 324 324 324
189 188 188 187 184 181 179 179 178 177 177 175 175 176 179 182 186 190 194 198 201 204 206 208 208 209 211 213 214 214 216 216 215 216 217 219 219 217 221 221 221 226 228 217 216 244 249 237 247 268 265 251 237 226 243 273 289 291 289 289 288 288 291 296 299 302 303 301 296 293 294 297 302 307 312 314 315 316 316 317 317 317 318 318 318
191 189 188 188 186 182 181 182 183 182 181 181 182 184 185 187 190 195 201 206 210 213 214 215 215 213 215 218 220 222 223 223 223 223 222 225 223 217 219 220 220 216 208 203 208 226 237 233 236 247 245 235 225 224 237 257 266 271 278 286 293 296 301 308 308 304 299 293 290 289 289 292 298 304 309 311 312 314 313 312 312 312 313 313 312
190 187 187 188 187 185 184 184 185 186 186 187 189 191 191 193 198 203 208 213 217 220 219 220 220 219 219 222 224 228 230 229 230 230 228 228 227 221 219 221 222 218 210 207 210 221 233 231 225 227 227 223 221 225 233 247 256 263 271 278 283 288 293 299 300 296 293 289 287 287 288 291 296 301 304 307 308 309 308 308 308 308 308 308 307
189 187 188 190 189 188 187 186 187 189 190 191 193 195 197 200 205 210 213 216 219 222 224 224 226 226 225 226 228 232 235 236 235 234 232 232 233 230 228 227 228 231 230 225 218 221 230 228 222 225 228 228 232 232 237 252 260 262 269 275 276 279 282 286 289 288 286 285 285 286 287 288 291 295 298 300 301 302 302 303 303 302 303 304 303
188 188 190 192 191 190 190 191 192 194 196 197 198 200 202 205 209 211 214 217 219 222 226 227 229 230 229 229 230 233 235 236 237 237 236 237 239 238 237 237 238 243 248 244 229 220 224 226 224 229 233 237 242 242 243 252 255 255 263 271 272 274 275 278 282 283 282 282 282 282 281 283 285 289 291 293 294 295 296 297 298 298 300 301 301
186 186 189 190 191 192 194 196 198 200 202 203 204 207 208 211 212 213 217 220 221 224 228 231 232 234 234 233 233 235 237 238 241 243 241 238 239 241 242 244 245 249 253 250 238 224 223 226 228 231 237 242 248 253 256 260 260 259 263 267 269 271 273 276 278 280 281 281 281 280 280 282 283 285 287 289 291 292 293 294 296 298 300 300 301
181 179 180 183 186 189 193 196 198 200 202 203 206 209 211 213 215 217 221 223 224 226 230 233 236 237 238 238 238 240 241 243 245 248 247 243 242 243 245 247 247 249 250 248 242 233 230 230 232 236 240 244 251 258 263 265 266 267 268 269 271 272 273 275 276 278 280 281 282 283 283 284 283 284 286 288 289 290 291 293 295 298 300 300 300
179 174 175 177 180 184 186 190 194 196 199 202 205 207 209 213 217 220 223 225 226 229 232 236 239 241 241 241 242 243 244 246 249 252 254 252 250 248 248 247 246 245 245 246 247 247 243 238 239 244 247 251 258 264 267 268 269 271 272 274 276 277 276 275 275 276 277 278 280 282 283 283 284 285 286 287 287 288 289 291 294 296 296 297 297
185 181 181 180 181 183 183 185 189 192 196 199 201 203 206 211 216 220 223 226 228 232 236 240 244 247 248 248 249 250 252 252 253 256 258 259 257 253 250 249 248 246 244 247 253 257 256 250 245 248 253 259 266 271 273 273 274 274 276 279 280 280 279 279 279 279 279 280 281 281 282 283 284 285 285 286 287 288 289 290 292 293 294 294 295
195 193 194 194 194 193 191 192 194 194 197 199 200 201 204 210 216 220 225 230 233 238 243 247 251 256 259 261 262 263 263 262 261 260 261 261 260 258 257 258 259 256 253 254 258 261 263 260 256 255 257 260 265 271 275 276 277 278 280 282 284 285 283 282 282 283 283 283 283 282 282 282 282 283 285 287 288 289 289 289 291 292 294 295 294
205 205 208 209 209 208 207 209 211 211 212 214 213 213 214 218 221 225 230 235 240 246 251 255 260 265 270 272 273 274 274 272 269 265 263 262 261 261 262 262 261 259 258 259 261 265 268 269 268 267 266 265 268 273 277 279 281 282 283 284 287 289 288 286 285 286 287 287 287 286 284 284 284 284 286 288 288 288 288 288 290 292 294 296 296
214 216 217 218 218 218 219 222 224 226 229 230 231 231 231 232 235 237 240 244 249 254 258 262 268 273 278 280 281 280 278 276 271 267 263 260 259 258 257 256 255 255 257 260 264 268 270 271 272 272 273 273 275 278 282 285 285 285 286 287 288 289 290 290 289 289 289 289 288 287 287 287 287 288 290 290 289 288 289 289 290 291 294 298 299
222 223 225 225 225 225 226 227 230 232 235 237 239 240 239 240 244 246 249 252 256 259 263 268 273 278 281 283 283 282 281 278 275 271 267 264 262 261 261 260 259 260 262 265 267 269 271 271 272 273 275 276 279 283 285 285 286 286 287 289 288 288 290 293 293 291 290 290 289 289 289 288 287 289 291 290 289 290 290 290 291 291 293 297 300
228 229 231 232 232 233 233 233 234 236 238 240 242 243 244 245 248 252 255 258 261 264 268 272 275 277 278 278 279 280 281 281 280 278 275 272 269 267 267 266 266 266 267 268 269 270 271 271 272 273 274 276 279 282 283 283 284 285 287 289 290 290 291 294 295 293 292 292 291 291 291 289 289 290 290 288 288 288 288 289 290 290 292 296 298
234 235 237 238 239 240 241 240 240 241 242 244 246 247 247 249 251 255 259 262 265 268 270 272 273 273 274 276 279 281 281 280 280 279 279 276 273 270 268 266 265 266 267 269 271 272 271 272 272 273 274 276 279 281 281 283 284 285 286 289 291 292 293 294 295 294 293 293 293 291 289 288 290 293 294 291 289 287 287 288 289 290 293 295 296
235 237 239 241 244 245 246 247 247 247 248 249 250 252 252 253 254 257 260 263 266 268 269 270 271 273 276 278 279 279 279 278 278 278 279 278 277 275 272 271 269 268 269 271 272 272 271 271 272 274 275 277 280 282 283 284 285 285 286 287 288 291 292 293 293 293 292 293 293 291 289 290 293 297 297 295 291 288 288 289 290 292 293 293 293
236 237 239 241 243 246 248 250 251 252 252 253 255 257 258 259 259 260 262 264 266 268 270 271 273 275 276 277 278 279 279 278 278 278 278 277 277 276 276 275 274 272 271 271 272 272 272 272 273 274 276 278 280 282 283 284 285 286 287 287 287 288 290 292 294 294 294 295 293 290 288 290 295 298 296 293 291 289 289 290 291 292 292 291 291
239 241 242 243 244 246 248 250 251 253 254 256 258 259 261 263 264 265 267 268 269 270 272 273 275 276 277 277 278 277 276 275 275 273 272 272 273 274 275 276 275 274 272 272 272 273 274 274 274 275 276 278 280 281 282 283 284 285 285 285 286 287 289 292 293 294 297 298 294 290 287 288 293 296 294 293 291 290 290 291 291 291 291 291 291
242 243 244 245 246 248 249 251 252 254 255 257 259 261 261 263 265 266 268 269 270 271 272 273 274 275 277 277 276 274 273 273 272 270 269 269 268 269 270 272 271 271 271 271 272 274 274 275 275 276 277 278 280 281 282 282 282 282 282 282 284 286 289 290 289 290 293 292 289 289 290 291 294 294 294 294 293 292 292 293 293 292 291 291 292
241 243 245 247 247 249 250 251 253 255 257 258 260 261 262 263 264 265 266 267 267 268 270 271 272 274 275 275 274 274 274 272 271 269 269 269 269 270 272 273 273 272 272 272 272 273 274 275 275 276 277 278 280 281 281 282 282 283 283 283 284 285 287 288 287 286 286 284 284 288 290 291 293 293 292 293 294 293 294 296 296 295 291 289 291
241 243 245 247 248 250 250 251 253 255 256 258 260 261 262 262 263 264 264 264 265 266 267 268 270 273 274 275 276 276 275 272 269 268 267 267 268 271 274 276 275 274 273 272 272 273 274 275 275 276 277 278 279 280 281 282 282 283 283 284 284 284 285 286 286 285 285 284 286 288 289 289 289 291 291 291 291 292 293 294 295 295 292 290 290
241 243 244 246 247 250 251 252 254 254 255 257 258 260 261 262 263 263 264 264 264 265 266 268 270 272 274 275 276 275 273 270 267 266 266 267 269 273 277 278 276 274 274 274 274 275 275 276 277 278 278 279 279 280 282 283 283 283 283 283 284 284 285 286 287 286 286 288 287 286 286 287 289 290 290 290 291 292 293 293 294 293 291 289 289
242 243 245 246 248 250 252 253 255 256 257 258 259 260 261 261 262 262 263 264 265 265 266 267 269 271 271 272 272 271 269 267 266 266 267 270 273 275 278 279 277 276 277 278 277 277 278 279 280 280 280 280 280 281 282 283 283 284 284 284 284 285 285 286 286 286 287 289 288 286 285 287 290 292 292 292 292 293 293 293 293 292 291 291 291
243 244 246 248 249 251 253 254 256 257 258 259 260 261 261 261 262 262 263 264 265 266 267 267 268 268 268 268 268 267 265 263 263 265 268 273 275 275 276 278 278 278 278 279 279 279 280 281 281 280 280 280 280 281 281 282 284 285 286 286 286 286 286 286 286 286 287 288 289 287 286 287 289 291 292 292 293 293 293 294 295 295 296 297 297
Height
5902 5902 5902 5903 5904 5906 5907 5909 5912 5913 5915 5916 5917 5919 5920 5921 5923 5924 5924 5925 5925 5925 5925 5925 5926 5926 5927 5927 5928 5928 5929 5930 5930 5931 5931 5931 5931 5931 5931 5930 5930 5930 5929 5929 5928 5928 5927 5926 5926 5926 5925 5925 5925 5924 5924 5923 5923 5922 5921 5921 5920 5920 5919 5919 5918 5918 5917 5916 5916 5915 5914 5914 5913 5912 5912 5911 5911 5910 5910 5910 5910 5910 5910 5909 5909
5901 5902 5902 5902 5903 5905 5907 5909 5911 5913 5915 5916 5918 5919 5921 5922 5923 5924 5925 5925 5925 5925 5925 5926 5927 5927 5928 5928 5929 5929 5930 5931 5931 5932 5932 5932 5932 5932 5931 5931 5931 5930 5930 5930 5929 5928 5928 5927 5927 5926 5926 5925 5925 5925 5925 5924 5923 5923 5922 5922 5921 5921 5920 5920 5919 5918 5917 5917 5916 5916 5915 5915 5914 5913 5913 5912 5912 5911 5911 5911 5911 5911 5911 5911 5911
5901 5902 5902 5902 5904 5905 5907 5909 5911 5912 5914 5916 5917 5919 5920 5922 5923 5923 5924 5925 5925 5925 5926 5927 5928 5928 5928 5929 5930 5930 5931 5932 5932 5933 5933 5933 5933 5933 5932 5932 5932 5931 5931 5930 5930 5929 5929 5928 5927 5927 5926 5926 5926 5926 5925 5925 5924 5924 5923 5923 5922 5922 5921 5921 5920 5919 5918 5918 5917 5917 5916 5916 5915 5915 5914 5914 5913 5913 5912 5912 5912 5912 5912 5912 5912
5901 5902 5902 5903 5905 5906 5908 5909 5911 5912 5914 5916 5917 5919 5920 5921 5923 5924 5924 5925 5926 5926 5928 5928 5929 5929 5929 5930 5931 5931 5932 5933 5933 5933 5934 5934 5934 5933 5933 5933 5932 5932 5931 5931 5930 5930 5929 5929 5928 5928 5927 5927 5927 5926 5926 5925 5925 5924 5924 5924 5923 5923 5922 5922 5921 5920 5919 5919 5918 5918 5917 5917 5916 5916 5916 5916 5915 5915 5915 5914 5914 5914 5913 5914 5914
5901 5902 5903 5904 5906 5907 5909 5910 5912 5913 5914 5916 5917 5919 5920 5922 5923 5924 5925 5925 5926 5928 5929 5929 5929 5930 5930 5931 5932 5932 5933 5933 5934 5934 5934 5934 5934 5934 5934 5933 5933 5932 5932 5931 5931 5930 5930 5929 5929 5928 5928 5927 5927 5927 5926 5926 5925 5925 5925 5924 5924 5924 5923 5923 5922 5921 5920 5920 5919 5919 5919 5918 5917 5917 5917 5917 5917 5917 5917 5916 5916 5915 5915 5915 5914
5901 5902 5904 5905 5907 5909 5910 5911 5913 5914 5915 5916 5918 5920 5921 5922 5923 5924 5925 5926 5928 5929 5929 5930 5930 5931 5931 5932 5932 5933 5934 5934 5934 5934 5935 5935 5935 5934 5934 5934 5933 5932 5932 5932 5931 5931 5930 5930 5929 5929 5928 5928 5928 5927 5927 5926 5926 5925 5925 5925 5925 5925 5924 5924 5923 5923 5922 5921 5921 5920 5920 5919 5919 5918 5918 5918 5918 5918 5918 5918 5917 5917 5916 5915 5915
5901 5903 5905 5906 5908 5910 5911 5913 5914 5915 5916 5917 5919 5920 5922 5923 5924 5925 5926 5927 5928 5929 5930 5930 5931 5931 5932 5932 5933 5934 5934 5934 5935 5935 5935 5935 5935 5935 5934 5934 5933 5933 5932 5932 5931 5931 5931 5930 5929 5929 5929 5928 5928 5928 5927 5927 5926 5926 5926 5926 5926 5925 5925 5925 5924 5924 5923 5923 5922 5922 5922 5921 5920 5920 5919 5919 5919 5919 5919 5919 5919 5918 5917 5916 5916
5902 5904 5906 5907 5909 5911 5912 5914 5915 5915 5917 5918 5920 5921 5923 5924 5925 5926 5927 5928 5929 5930 5930 5931 5931 5932 5932 5933 5934 5934 5934 5935 5935 5935 5935 5935 5935 5934 5934 5934 5933 5933 5932 5932 5931 5931 5931 5930 5930 5929 5929 5929 5928 5928 5928 5927 5927 5927 5927 5927 5927 5927 5926 5926 5926 5925 5925 5924 5924 5923 5923 5923 5922 5921 5920 5920 5920 5920 5920 5920 5919 5919 5918 5918 5917
5903 5904 5906 5908 5910 5912 5913 5914 5915 5916 5918 5919 5920 5922 5923 5924 5925 5926 5927 5928 5929 5930 5931 5931 5932 5932 5933 5933 5934 5934 5934 5935 5935 5935 5935 5935 5935 5934 5934 5934 5933 5933 5932 5932 5931 5931 5931 5931 5930 5930 5930 5929 5929 5929 5928 5928 5928 5928 5928 5928 5928 5928 5928 5927 5927 5927 5926 5926 5925 5925 5924 5924 5923 5923 5922 5921 5921 5920 5920 5920 5920 5920 5919 5919 5918
5903 5905 5907 5909 5911 5912 5913 5914 5916 5917 5918 5920 5921 5922 5923 5924 5925 5926 5927 5928 5929 5930 5931 5931 5932 5933 5933 5934 5934 5934 5935 5935 5935 5935 5935 5935 5935 5935 5934 5934 5934 5933 5933 5932 5932 5931 5931 5931 5931 5931 5930 5930 5930 5929 5929 5929 5929 5929 5929 5929 5929 5929 5929 5929 5928 5928 5928 5927 5927 5926 5925 5925 5925 5924 5923 5922 5922 5921 5921 5921 5920 5920 5920 5919 5919
5904 5906 5908 5910 5911 5913 5914 5915 5916 5917 5919 5920 5921 5921 5923 5924 5925 5926 5927 5929 5930 5930 5931 5932 5932 5933 5934 5934 5934 5934 5935 5935 5935 5935 5935 5935 5935 5935 5935 5934 5934 5934 5933 5933 5932 5932 5931 5932 5932 5931 5931 5931 5930 5930 5930 5930 5930 5930 5930 5930 5930 5930 5930 5930 5929 5929 5929 5928 5928 5927 5927 5926 5926 5925 5924 5923 5923 5922 5922 5921 5921 5921 5920 5920 5919
5905 5907 5909 5911 5912 5913 5914 5915 5916 5918 5919 5920 5920 5921 5922 5924 5925 5926 5927 5929 5930 5930 5931 5932 5933 5934 5934 5934 5934 5934 5935 5935 5935 5935 5935 5935 5935 5935 5935 5935 5934 5934 5934 5933 5933 5932 5932 5932 5932 5932 5932 5932 5931 5931 5931 5931 5931 5931 5931 5931 5931 5931 5931 5930 5930 5930 5930 5929 5929 5929 5928 5927 5926 5926 5925 5924 5924 5923 5923 5922 5922 5921 5921 5920 5920
5907 5908 5910 5911 5912 5913 5914 5916 5917 5918 5919 5919 5921 5922 5923 5924 5925 5926 5928 5929 5930 5930 5931 5932 5933 5933 5934 5934 5934 5934 5934 5935 5935 5935 5935 5935 5935 5935 5935 5935 5934 5934 5934 5934 5933 5933 5932 5932 5932 5932 5932 5932 5932 5932 5932 5932 5932 5931 5931 5931 5931 5931 5931 5931 5931 5931 5931 5930 5930 5929 5929 5928 5927 5927 5926 5925 5924 5924 5923 5923 5922 5922 5921 5921 5920
5908 5909 5911 5912 5913 5914 5915 5916 5917 5918 5919 5920 5921 5922 5923 5924 5925 5926 5928 5929 5930 5930 5931 5932 5933 5933 5934 5934 5934 5934 5935 5935 5935 5935 5935 5935 5935 5935 5935 5935 5935 5934 5934 5934 5933 5933 5932 5933 5933 5933 5932 5932 5933 5933 5932 5932 5932 5932 5932 5931 5931 5931 5931 5931 5931 5931 5931 5931 5930 5930 5929 5928 5928 5927 5927 5926 5925 5924 5924 5924 5923 5922 5922 5921 5920
5908 5910 5911 5912 5913 5915 5915 5916 5917 5918 5919 5920 5921 5922 5923 5924 5925 5926 5927 5929 5930 5930 5931 5932 5933 5933 5934 5934 5934 5934 5935 5935 5935 5935 5935 5936 5935 5935 5935 5935 5935 5935 5934 5934 5933 5933 5933 5933 5933 5933 5933 5932 5932 5932 5933 5933 5933 5932 5932 5932 5932 5932 5932 5932 5931 5931 5931 5931 5931 5930 5930 5929 5928 5928 5927 5926 5926 5925 5924 5924 5924 5923 5922 5921 5921
5909 5910 5911 5912 5914 5915 5916 5916 5917 5918 5919 5921 5922 5923 5924 5925 5926 5927 5928 5928 5929 5930 5931 5932 5933 5934 5934 5934 5934 5935 5935 5935 5935 5935 5936 5936 5936 5936 5935 5935 5935 5935 5935 5934 5934 5934 5934 5933 5933 5933 5933 5932 5932 5932 5933 5933 5933 5933 5933 5933 5933 5933 5932 5932 5932 5932 5932 5931 5931 5930 5930 5929 5928 5928 5927 5926 5926 5925 5925 5925 5924 5923 5922 5921 5920
5909 5910 5911 5913 5914 5915 5916 5917 5918 5919 5920 5921 5922 5923 5924 5925 5926 5927 5928 5929 5929 5930 5931 5932 5933 5934 5934 5934 5934 5935 5935 5935 5935 5936 5936 5936 5936 5936 5936 5936 5935 5935 5935 5935 5934 5934 5934 5934 5934 5933 5933 5932 5932 5932 5933 5933 5933 5933 5933 5933 5933 5933 5933 5933 5932 5932 5932 5931 5931 5930 5930 5929 5928 5928 5927 5926 5926 5925 5925 5925 5925 5924 5923 5921 5920
5909 5910 5911 5912 5913 5915 5916 5917 5918 5919 5920 5922 5923 5924 5924 5925 5926 5927 5928 5929 5929 5930 5931 5932 5933 5934 5934 5934 5934 5934 5935 5935 5935 5936 5936 5936 5936 5936 5936 5936 5936 5935 5935 5935 5935 5935 5935 5934 5934 5934 5933 5933 5933 5933 5933 5933 5933 5932 5933 5933 5933 5933 5933 5933 5932 5932 5932 5932 5931 5930 5929 5929 5928 5928 5927 5926 5926 5925 5925 5925 5924 5923 5922 5921 5920
5909 5910 5911 5912 5913 5915 5916 5917 5918 5920 5921 5922 5923 5924 5925 5925 5926 5927 5928 5928 5929 5929 5930 5932 5932 5933 5933 5934 5934 5934 5935 5935 5935 5935 5936 5936 5936 5936 5936 5936 5936 5935 5935 5935 5935 5935 5935 5935 5934 5934 5934 5933 5933 5933 5933 5932 5933 5933 5933 5932 5932 5932 5932 5932 5932 5932 5932 5931 5931 5930 5930 5929 5928 5928 5927 5926 5926 5926 5925 5924 5923 5922 5922 5921 5920
5910 5910 5911 5912 5913 5915 5917 5918 5919 5920 5921 5922 5923 5924 5924 5925 5926 5927 5928 5928 5928 5929 5930 5931 5931 5932 5933 5934 5934 5934 5935 5935 5935 5935 5935 5935 5936 5936 5936 5936 5935 5935 5935 5935 5935 5935 5935 5935 5935 5935 5934 5934 5933 5933 5933 5933 5933 5933 5933 5932 5932 5932 5932 5932 5932 5931 5931 5931 5931 5930 5929 5929 5928 5928 5927 5926 5926 5925 5925 5924 5922 5922 5921 5920 5919
5910 5910 5911 5912 5913 5915 5917 5918 5919 5920 5921 5922 5923 5924 5924 5925 5926 5927 5927 5928 5929 5930 5930 5931 5931 5932 5933 5934 5934 5934 5935 5935 5935 5935 5935 5935 5936 5936 5936 5936 5936 5936 5935 5935 5935 5935 5935 5935 5935 5935 5935 5934 5934 5933 5933 5933 5933 5933 5933 5932 5932 5932 5931 5931 5931 5931 5931 5930 5930 5930 5929 5929 5928 5928 5927 5926 5925 5925 5924 5923 5922 5921 5921 5920 5919
5910 5911 5911 5913 5914 5915 5917 5918 5919 5920 5921 5922 5922 5923 5923 5924 5925 5926 5927 5928 5929 5929 5930 5931 5931 5932 5933 5933 5934 5934 5934 5934 5935 5935 5935 5935 5936 5936 5936 5936 5935 5935 5935 5935 5935 5935 5935 5935 5935 5935 5935 5934 5934 5934 5933 5933 5933 5933 5932 5932 5932 5931 5931 5931 5930 5930 5930 5930 5930 5929 5929 5928 5928 5927 5927 5926 5925 5924 5924 5923 5922 5921 5920 5919 5919
5910 5911 5912 5913 5914 5916 5917 5918 5919 5920 5921 5922 5922 5922 5923 5924 5925 5926 5927 5927 5928 5929 5929 5930 5931 5931 5932 5932 5933 5934 5934 5934 5934 5935 5935 5935 5935 5935 5935 5935 5935 5935 5935 5935 5935 5935 5934 5935 5934 5934 5934 5934 5934 5934 5933 5933 5933 5933 5932 5932 5931 5931 5930 5930 5930 5930 5930 5929 5929 5929 5928 5928 5927 5927 5926 5925 5925 5924 5923 5922 5921 5920 5919 5919 5918
5910 5911 5913 5914 5915 5916 5917 5918 5919 5920 5921 5921 5921 5922 5922 5923 5924 5925 5926 5927 5928 5928 5929 5929 5930 5931 5931 5932 5932 5933 5934 5934 5934 5935 5935 5935 5935 5935 5935 5935 5935 5935 5935 5935 5935 5934 5934 5934 5934 5934 5934 5933 5933 5933 5933 5933 5933 5932 5932 5932 5931 5931 5930 5930 5930 5929 5929 5929 5928 5928 5927 5927 5926 5926 5925 5925 5924 5923 5923 5922 5921 5920 5919 5918 5917
5911 5912 5913 5914 5915 5916 5917 5918 5919 5920 5920 5921 5921 5922 5922 5923 5924 5925 5926 5926 5927 5928 5928 5929 5930 5930 5931 5932 5932 5933 5934 5934 5934 5934 5935 5935 5935 5934 5934 5934 5935 5935 5934 5934 5934 5934 5934 5934 5934 5933 5933 5933 5932 5932 5932 5932 5932 5932 5931 5931 5931 5930 5930 5930 5929 5929 5928 5928 5927 5927 5926 5926 5925 5925 5924 5924 5923 5923 5922 5921 5920 5919 5918 5917 5916
5912 5913 5914 5914 5915 5916 5917 5918 5919 5919 5920 5921 5921 5922 5923 5923 5924 5925 5925 5926 5927 5928 5928 5929 5929 5930 5931 5932 5932 5933 5933 5934 5934 5934 5934 5934 5934 5934 5934 5934 5935 5934 5934 5934 5934 5934 5934 5934 5933 5933 5932 5932 5932 5932 5931 5931 5931 5931 5931 5930 5930 5930 5929 5929 5928 5928 5927 5927 5926 5926 5926 5925 5925 5924 5923 5923 5922 5922 5921 5920 5919 5919 5918 5917 5916
5913 5913 5914 5915 5915 5916 5917 5917 5918 5919 5920 5920 5921 5922 5923 5924 5924 5925 5925 5926 5926 5927 5928 5928 5929 5930 5931 5931 5932 5932 5933 5933 5934 5934 5934 5934 5934 5934 5934 5934 5934 5934 5934 5934 5934 5934 5934 5933 5933 5933 5932 5932 5931 5931 5931 5931 5931 5931 5930 5930 5929 5929 5928 5928 5927 5927 5926 5926 5925 5925 5925 5924 5924 5923 5923 5922 5921 5921 5920 5920 5919 5918 5917 5916 5915
5912 5913 5914 5915 5915 5916 5916 5917 5918 5918 5919 5920 5921 5922 5923 5924 5924 5925 5925 5926 5926 5927 5927 5928 5929 5929 5930 5930 5931 5932 5932 5933 5933 5933 5934 5934 5934 5934 5934 5933 5933 5933 5933 5933 5933 5933 5932 5932 5932 5932 5932 5931 5931 5931 5930 5930 5930 5930 5930 5930 5929 5929 5928 5927 5927 5926 5926 5925 5925 5924 5924 5924 5923 5923 5922 5921 5921 5920 5920 5919 5918 5917 5916 5915 5914
5912 5913 5914 5914 5915 5915 5916 5916 5917 5918 5919 5920 5921 5922 5923 5923 5924 5925 5925 5926 5926 5927 5927 5928 5928 5929 5929 5930 5930 5931 5931 5932 5932 5933 5933 5933 5933 5933 5933 5932 5932 5932 5933 5933 5933 5932 5932 5931 5931 5931 5931 5931 5930 5930 5930 5930 5929 5929 5929 5929 5929 5928 5928 5927 5926 5926 5925 5925 5924 5924 5923 5923 5922 5922 5921 5921 5920 5919 5919 5918 5917 5916 5915 5914 5913
5911 5912 5913 5914 5915 5915 5916 5916 5917 5918 5918 5919 5921 5922 5922 5923 5924 5924 5925 5926 5926 5927 5927 5927 5928 5928 5929 5929 5930 5930 5931 5931 5932 5932 5932 5932 5932 5932 5932 5931 5931 5931 5931 5932 5932 5931 5931 5931 5930 5930 5930 5929 5929 5929 5929 5929 5929 5929 5928 5928 5928 5927 5927 5926 5926 5925 5925 5924 5924 5923 5923 5922 5922 5921 5920 5920 5919 5918 5917 5916 5915 5915 5914 5913 5911
5911 5912 5913 5914 5914 5915 5915 5916 5917 5917 5918 5919 5920 5921 5922 5923 5923 5924 5925 5926 5926 5926 5927 5927 5927 5928 5928 5928 5929 5930 5930 5931 5931 5931 5931 5931 5931 5931 5931 5931 5930 5930 5930 5930 5930 5930 5930 5930 5929 5929 5929 5929 5929 5928 5928 5928 5928 5928 5928 5927 5927 5926 5926 5925 5925 5924 5923 5923 5923 5922 5922 5921 5921 5920 5919 5918 5918 5917 5916 5915 5914 5913 5912 5911 5910
5910 5911 5912 5913 5914 5915 5915 5916 5917 5917 5918 5919 5920 5921 5921 5922 5923 5924 5924 5925 5925 5926 5926 5926 5927 5927 5927 5928 5929 5929 5930 5930 5930 5929 5929 5930 5930 5930 5930 5930 5930 5929 5929 5929 5929 5929 5929 5929 5929 5928 5928 5928 5928 5927 5927 5927 5927 5927 5927 5927 5926 5925 5925 5924 5923 5923 5922 5922 5921 5921 5920 5920 5919 5918 5917 5917 5916 5915 5914 5913 5912 5911 5910 5909 5908
5909 5910 5911 5912 5913 5914 5915 5916 5916 5917 5918 5919 5919 5920 5921 5921 5922 5923 5923 5924 5924 5925 5925 5926 5926 5926 5926 5927 5928 5928 5928 5928 5928 5928 5928 5928 5929 5929 5929 5928 5928 5928 5928 5927 5927 5928 5928 5928 5928 5928 5928 5927 5927 5927 5926 5926 5926 5926 5926 5925 5925 5924 5924 5923 5922 5922 5921 5920 5920 5919 5918 5918 5917 5916 5916 5915 5914 5913 5912 5911 5910 5909 5909 5908 5906
5909 5910 5911 5912 5913 5914 5914 5915 5916 5917 5917 5918 5919 5919 5920 5921 5921 5922 5923 5923 5924 5924 5925 5925 5925 5925 5926 5926 5927 5927 5927 5928 5927 5927 5927 5927 5927 5927 5927 5927 5927 5927 5926 5926 5926 5926 5927 5927 5927 5927 5927 5927 5926 5926 5926 5925 5925 5925 5924 5924 5923 5923 5922 5922 5921 5920 5920 5919 5918 5917 5917 5916 5915 5914 5914 5913 5912 5911 5911 5909 5908 5907 5906 5905 5904
5910 5910 5911 5912 5913 5913 5914 5915 5915 5916 5917 5917 5918 5918 5919 5920 5921 5921 5922 5922 5923 5923 5924 5924 5924 5925 5925 5926 5926 5926 5927 5927 5927 5927 5927 5926 5926 5926 5926 5925 5925 5925 5925 5925 5925 5925 5926 5926 5926 5926 5926 5926 5925 5925 5925 5924 5924 5923 5923 5922 5922 5921 5920 5920 5919 5918 5917 5917 5916 5915 5915 5914 5913 5912 5912 5911 5910 5909 5908 5907 5906 5905 5903 5902 5900
5910 5911 5911 5912 5913 5913 5914 5914 5915 5916 5917 5917 5918 5918 5919 5919 5920 5921 5921 5922 5922 5923 5923 5924 5924 5924 5925 5925 5926 5926 5926 5926 5926 5926 5926 5926 5925 5925 5925 5925 5925 5925 5925 5924 5924 5924 5924 5925 5925 5925 5924 5924 5924 5923 5923 5922 5922 5921 5921 5920 5920 5919 5918 5918 5917 5916 5915 5915 5914 5913 5912 5911 5911 5910 5909 5908 5907 5906 5905 5904 5903 5902 5900 5899 5897
5910 5911 5912 5912 5913 5913 5914 5914 5915 5916 5917 5917 5918 5918 5919 5919 5920 5920 5921 5922 5922 5922 5923 5923 5924 5924 5924 5925 5925 5925 5925 5925 5925 5925 5925 5925 5924 5924 5924 5925 5925 5925 5925 5924 5924 5924 5923 5923 5923 5923 5922 5922 5922 5921 5921 5920 5920 5919 5919 5918 5918 5917 5916 5916 5915 5914 5913 5912 5912 5911 5910 5909 5908 5907 5906 5905 5904 5903 5902 5901 5900 5898 5897 5895 5894
5910 5910 5911 5912 5912 5913 5914 5914 5915 5916 5917 5917 5918 5918 5919 5920 5920 5921 5921 5922 5922 5922 5923 5923 5923 5923 5923 5924 5924 5924 5924 5924 5924 5923 5923 5923 5923 5923 5924 5924 5924 5924 5923 5923 5923 5922 5922 5921 5921 5920 5920 5920 5919 5919 5919 5918 5918 5917 5917 5917 5916 5915 5914 5914 5913 5912 5910 5909 5909 5908 5907 5906 5905 5904 5903 5902 5900 5900 5898 5897 5896 5895 5893 5892 5890
5909 5909 5910 5911 5912 5913 5913 5914 5915 5916 5916 5917 5918 5918 5919 5920 5920 5921 5921 5921 5921 5922 5922 5922 5922 5922 5922 5922 5922 5922 5922 5922 5921 5921 5921 5921 5921 5921 5922 5922 5921 5921 5921 5921 5921 5920 5920 5919 5919 5918 5918 5917 5917 5917 5917 5917 5916 5915 5915 5915 5914 5913 5912 5912 5911 5909 5907 5906 5905 5904 5903 5902 5901 5901 5900 5897 5896 5895 5894 5893 5892 5891 5889 5888 5886
5907 5908 5909 5910 5911 5912 5912 5913 5914 5915 5916 5916 5917 5918 5918 5919 5919 5920 5920 5920 5921 5921 5921 5921 5921 5921 5921 5921 5921 5920 5920 5920 5919 5919 5919 5919 5919 5920 5920 5919 5919 5919 5919 5919 5919 5918 5918 5917 5917 5916 5915 5914 5915 5915 5915 5914 5913 5912 5911 5912 5911 5910 5909 5908 5907 5906 5904 5903 5901 5900 5899 5898 5897 5897 5896 5893 5890 5890 5890 5889 5888 5886 5885 5883 5882
5906 5907 5908 5909 5910 5911 5912 5912 5913 5914 5915 5915 5916 5917 5917 5918 5918 5919 5919 5919 5920 5920 5920 5920 5920 5920 5920 5919 5919 5918 5918 5918 5918 5917 5917 5917 5917 5918 5917 5917 5917 5917 5917 5916 5916 5916 5915 5915 5914 5914 5913 5911 5912 5913 5912 5911 5910 5909 5909 5908 5908 5906 5905 5905 5904 5902 5900 5899 5898 5897 5895 5893 5892 5892 5892 5889 5887 5886 5885 5885 5884 5882 5880 5879 5877
5905 5906 5907 5908 5909 5910 5911 5912 5912 5913 5913 5914 5915 5915 5916 5917 5917 5918 5918 5918 5918 5919 5919 5918 5918 5918 5918 5918 5918 5917 5917 5916 5916 5915 5915 5915 5915 5915 5915 5914 5914 5914 5914 5914 5914 5914 5913 5913 5912 5911 5910 5909 5909 5909 5909 5908 5907 5907 5906 5905 5904 5903 5902 5902 5901 5898 5896 5895 5894 5893 5891 5889 5888 5887 5887 5886 5884 5882 5881 5880 5879 5877 5875 5874 5872
5902 5904 5905 5907 5908 5909 5910 5910 5911 5911 5912 5913 5913 5914 5915 5915 5916 5916 5916 5917 5917 5917 5917 5916 5916 5916 5916 5916 5916 5916 5915 5915 5914 5914 5913 5913 5913 5913 5912 5913 5913 5912 5912 5912 5911 5911 5910 5910 5909 5908 5907 5906 5906 5905 5905 5905 5904 5903 5903 5902 5901 5900 5899 5898 5897 5894 5893 5891 5890 5889 5887 5885 5884 5883 5882 5881 5879 5878 5876 5875 5873 5871 5870 5868 5866
5900 5901 5902 5904 5905 5906 5907 5908 5909 5909 5910 5911 5911 5912 5913 5914 5914 5914 5915 5915 5915 5914 5914 5914 5914 5914 5914 5914 5914 5913 5913 5913 5912 5912 5911 5911 5910 5910 5910 5910 5910 5910 5909 5908 5908 5907 5907 5906 5906 5905 5904 5903 5903 5902 5902 5902 5901 5900 5900 5899 5898 5897 5895 5894 5892 5890 5888 5887 5885 5884 5883 5881 5880 5879 5877 5876 5875 5873 5871 5870 5868 5866 5864 5862 5861
5898 5899 5900 5901 5902 5903 5904 5905 5905 5906 5907 5908 5909 5909 5910 5911 5912 5912 5912 5912 5912 5912 5911 5911 5911 5910 5910 5911 5910 5910 5909 5909 5908 5908 5908 5908 5908 5908 5908 5908 5907 5907 5906 5905 5904 5904 5904 5903 5902 5902 5901 5900 5899 5899 5898 5897 5897 5897 5896 5895 5894 5892 5892 5891 5890 5887 5885 5882 5879 5878 5877 5876 5875 5874 5873 5871 5870 5868 5866 5864 5863 5861 5859 5857 5855
5895 5896 5897 5898 5899 5900 5901 5902 5902 5903 5904 5905 5906 5906 5907 5908 5908 5909 5909 5909 5909 5909 5908 5908 5907 5907 5907 5907 5906 5905 5906 5906 5905 5904 5904 5904 5905 5905 5905 5905 5904 5904 5903 5902 5901 5901 5900 5900 5899 5899 5898 5897 5896 5895 5895 5893 5892 5892 5891 5890 5890 5888 5888 5888 5886 5884 5882 5879 5874 5872 5872 5871 5870 5868 5867 5865 5864 5862 5860 5859 5857 5855 5853 5851 5848
5892 5893 5894 5895 5896 5897 5898 5899 5900 5901 5902 5903 5903 5903 5904 5905 5905 5906 5906 5906 5906 5906 5905 5904 5904 5904 5904 5903 5902 5902 5903 5903 5902 5901 5901 5901 5901 5902 5902 5902 5901 5900 5899 5898 5898 5897 5897 5896 5896 5895 5894 5893 5892 5891 5890 5889 5888 5887 5886 5885 5885 5884 5883 5882 5881 5879 5877 5874 5871 5869 5867 5865 5864 5863 5861 5859 5858 5856 5854 5852 5851 5849 5847 5845 5842
5888 5890 5891 5892 5893 5894 5895 5896 5897 5898 5899 5900 5900 5900 5901 5901 5902 5902 5903 5903 5903 5903 5902 5901 5901 5901 5901 5900 5900 5900 5900 5900 5900 5899 5898 5898 5898 5898 5899 5899 5898 5896 5896 5894 5894 5893 5893 5892 5892 5892 5891 5890 5888 5887 5885 5885 5883 5882 5881 5880 5879 5878 5878 5877 5875 5873 5871 5869 5868 5865 5863 5861 5860 5858 5856 5854 5852 5850 5848 5846 5844 5842 5840 5838 5836
5885 5886 5887 5888 5889 5890 5892 5893 5893 5894 5895 5896 5896 5897 5898 5898 5899 5899 5899 5899 5899 5899 5898 5898 5898 5898 5897 5897 5897 5897 5896 5896 5896 5896 5894 5894 5894 5894 5894 5893 5893 5892 5891 5890 5890 5889 5888 5888 5887 5887 5886 5885 5884 5882 5880 5879 5878 5877 5876 5874 5873 5872 5872 5871 5869 5867 5865 5864 5862 5860 5858 5856 5855 5853 5851 5849 5846 5844 5842 5840 5838 5836 5834 5832 5830
5881 5882 5883 5884 5886 5887 5888 5889 5890 5891 5891 5892 5892 5893 5894 5894 5895 5895 5895 5895 5895 5895 5895 5895 5895 5895 5894 5893 5892 5892 5892 5893 5893 5892 5891 5890 5889 5889 5888 5887 5887 5888 5887 5886 5885 5884 5883 5883 5882 5881 5881 5879 5878 5877 5875 5874 5873 5871 5870 5869 5868 5867 5866 5865 5863 5862 5860 5858 5856 5855 5853 5851 5849 5847 5845 5843 5840 5838 5836 5834 5832 5830 5828 5826 5823
5877 5878 5879 5880 5882 5883 5884 5885 5886 5887 5887 5888 5888 5889 5889 5890 5890 5891 5891 5891 5891 5891 5892 5892 5892 5891 5889 5888 5887 5888 5889 5889 5889 5888 5887 5886 5885 5884 5884 5883 5882 5883 5882 5881 5880 5879 5878 5878 5877 5876 5875 5874 5872 5871 5870 5869 5867 5866 5865 5863 5862 5861 5860 5859 5857 5856 5854 5852 5851 5849 5847 5845 5843 5841 5839 5836 5834 5832 5830 5828 5826 5824 5822 5819 5817